• In Hungary
  • List of Countries
  • For 7 days
  • Water Temperature
  • Satellite Maps
  • Weather Map
  • News
  • Weather Widgets
  • user-avatar
    Login

    Hourly Weather Pervomais'ke

    Today, 23 October, Tuesday

    Time Temperature Precipitation Wind Pressure Humidity
    00:00 +9°C° 0 mm 2 mps 749 mmHg 85%
    01:00 +8°C° 0 mm 2 mps 749 mmHg 86%
    02:00 +8°C° 0 mm 2 mps 748 mmHg 86%
    03:00 +7°C° 0 mm 2 mps 748 mmHg 86%
    04:00 +7°C° 0 mm 3 mps 748 mmHg 86%
    05:00 +5°C° 0 mm 3 mps 748 mmHg 86%
    06:00 +7°C° 0 mm 3 mps 748 mmHg 82%
    07:00 +7°C° 0 mm 3 mps 748 mmHg 77%
    08:00 +7°C° 0 mm 4 mps 748 mmHg 73%
    09:00 +8°C° 0 mm 4 mps 748 mmHg 64%
    10:00 +10°C° 0 mm 4 mps 747 mmHg 55%
    11:00 +12°C° 0 mm 4 mps 747 mmHg 47%
    12:00 +12°C° 0 mm 5 mps 747 mmHg 45%
    13:00 +12°C° 0 mm 5 mps 746 mmHg 44%
    14:00 +13°C° 0 mm 5 mps 745 mmHg 42%
    15:00 +12°C° 0 mm 5 mps 745 mmHg 46%
    16:00 +11°C° 0 mm 4 mps 744 mmHg 51%
    17:00 +10°C° 0 mm 3 mps 744 mmHg 55%
    18:00 +9°C° 0 mm 3 mps 744 mmHg 57%
    19:00 +9°C° 0 mm 3 mps 743 mmHg 60%
    20:00 +8°C° 0 mm 3 mps 743 mmHg 62%
    21:00 +7°C° 0 mm 4 mps 742 mmHg 61%
    22:00 +7°C° 0 mm 4 mps 741 mmHg 60%
    23:00 +7°C° 0 mm 5 mps 741 mmHg 59%

    Tomorrow, 24 October, Wednesday

    Time Temperature Precipitation Wind Pressure Humidity
    00:00 +7°C° 0 mm 5 mps 740 mmHg 60%
    01:00 +7°C° 0 mm 5 mps 739 mmHg 61%
    02:00 +7°C° 0 mm 6 mps 739 mmHg 62%
    03:00 +8°C° 0.1 mm 7 mps 737 mmHg 62%
    04:00 +7°C° 0.1 mm 8 mps 736 mmHg 62%
    05:00 +8°C° 0.1 mm 9 mps 735 mmHg 62%
    06:00 +8°C° 0.6 mm 9 mps 734 mmHg 68%
    07:00 +8°C° 0.6 mm 9 mps 734 mmHg 73%
    08:00 +8°C° 0.6 mm 9 mps 733 mmHg 78%
    09:00 +8°C° 0.7 mm 9 mps 732 mmHg 75%
    10:00 +10°C° 0.7 mm 9 mps 732 mmHg 72%
    11:00 +10°C° 0.7 mm 9 mps 731 mmHg 69%
    12:00 +10°C° 0.1 mm 8 mps 731 mmHg 67%
    13:00 +10°C° 0.1 mm 8 mps 730 mmHg 66%
    14:00 +11°C° 0.1 mm 8 mps 730 mmHg 64%
    15:00 +10°C° 0.4 mm 6 mps 729 mmHg 69%
    16:00 +10°C° 0.4 mm 5 mps 729 mmHg 73%
    17:00 +10°C° 0.4 mm 3 mps 729 mmHg 77%
    18:00 +9°C° 1.5 mm 3 mps 729 mmHg 80%
    19:00 +8°C° 1.5 mm 4 mps 728 mmHg 82%
    20:00 +7°C° 1.5 mm 4 mps 728 mmHg 85%
    21:00 +8°C° 0.5 mm 3 mps 728 mmHg 84%
    22:00 +7°C° 0.5 mm 3 mps 728 mmHg 83%
    23:00 +7°C° 0.5 mm 3 mps 728 mmHg 82%

    Day after tomorrow, 25 October, Thursday

    Time Temperature Precipitation Wind Pressure Humidity
    00:00 +7°C° 0 mm 3 mps 729 mmHg 83%
    01:00 +7°C° 0 mm 3 mps 729 mmHg 83%
    02:00 +7°C° 0 mm 3 mps 729 mmHg 83%
    03:00 +5°C° 0 mm 3 mps 730 mmHg 85%
    04:00 +5°C° 0 mm 3 mps 730 mmHg 86%
    05:00 +4°C° 0 mm 3 mps 730 mmHg 87%
    06:00 +4°C° 0 mm 3 mps 730 mmHg 85%
    07:00 +5°C° 0 mm 3 mps 731 mmHg 82%
    08:00 +5°C° 0 mm 4 mps 732 mmHg 80%
    09:00 +6°C° 0 mm 4 mps 732 mmHg 73%
    10:00 +7°C° 0 mm 4 mps 732 mmHg 65%
    11:00 +8°C° 0 mm 4 mps 732 mmHg 58%
    12:00 +7°C° 0.3 mm 4 mps 732 mmHg 60%
    13:00 +7°C° 0.3 mm 5 mps 732 mmHg 61%
    14:00 +7°C° 0.3 mm 5 mps 733 mmHg 63%
    15:00 +6°C° 0.1 mm 4 mps 733 mmHg 65%
    16:00 +6°C° 0.1 mm 4 mps 734 mmHg 68%
    17:00 +5°C° 0.1 mm 4 mps 734 mmHg 70%
    18:00 +5°C° 0 mm 4 mps 735 mmHg 72%
    19:00 +5°C° 0 mm 5 mps 735 mmHg 74%
    20:00 +3°C° 0 mm 5 mps 736 mmHg 76%
    21:00 +3°C° 0 mm 5 mps 736 mmHg 74%
    22:00 +4°C° 0 mm 4 mps 737 mmHg 73%
    23:00 +3°C° 0 mm 4 mps 737 mmHg 71%

    26 October, Friday

    Time Temperature Precipitation Wind Pressure Humidity
    00:00 +3°C° 0 mm 4 mps 737 mmHg 73%
    01:00 +1°C° 0 mm 4 mps 738 mmHg 74%
    02:00 +2°C° 0 mm 3 mps 738 mmHg 75%
    03:00 +1°C° 0 mm 3 mps 738 mmHg 76%
    04:00 +1°C° 0 mm 3 mps 738 mmHg 78%
    05:00 +1°C° 0 mm 3 mps 738 mmHg 79%
    06:00 +2°C° 0 mm 3 mps 739 mmHg 77%
    07:00 +3°C° 0 mm 3 mps 739 mmHg 74%
    08:00 +3°C° 0 mm 3 mps 739 mmHg 72%
    09:00 +5°C° 0 mm 2 mps 739 mmHg 67%
    10:00 +7°C° 0 mm 2 mps 739 mmHg 61%
    11:00 +8°C° 0 mm 2 mps 740 mmHg 56%
    12:00 +8°C° 0 mm 2 mps 740 mmHg 55%
    13:00 +8°C° 0 mm 2 mps 740 mmHg 55%
    14:00 +8°C° 0 mm 2 mps 741 mmHg 54%
    15:00 +8°C° 0 mm 2 mps 741 mmHg 57%
    16:00 +8°C° 0 mm 2 mps 742 mmHg 61%
    17:00 +7°C° 0 mm 2 mps 743 mmHg 65%
    18:00 +7°C° 0 mm 3 mps 743 mmHg 68%
    19:00 +5°C° 0 mm 3 mps 744 mmHg 71%
    20:00 +5°C° 0 mm 3 mps 745 mmHg 74%
    21:00 +4°C° 0 mm 4 mps 745 mmHg 75%
    22:00 +4°C° 0 mm 4 mps 746 mmHg 77%
    23:00 +3°C° 0 mm 4 mps 746 mmHg 79%

    27 October, Saturday

    Time Temperature Precipitation Wind Pressure Humidity
    00:00 +3°C° 0 mm 4 mps 746 mmHg 80%
    01:00 +3°C° 0 mm 4 mps 747 mmHg 81%
    02:00 +3°C° 0 mm 4 mps 747 mmHg 82%
    03:00 +3°C° 0 mm 4 mps 748 mmHg 84%
    04:00 +2°C° 0 mm 3 mps 748 mmHg 87%
    05:00 +2°C° 0 mm 3 mps 749 mmHg 89%
    06:00 +3°C° 0 mm 3 mps 749 mmHg 85%
    07:00 +3°C° 0 mm 3 mps 749 mmHg 81%
    08:00 +4°C° 0 mm 4 mps 750 mmHg 77%
    09:00 +6°C° 0 mm 4 mps 750 mmHg 71%
    10:00 +7°C° 0 mm 4 mps 750 mmHg 65%
    11:00 +8°C° 0 mm 5 mps 749 mmHg 59%
    12:00 +9°C° 0 mm 5 mps 749 mmHg 56%
    13:00 +10°C° 0 mm 6 mps 749 mmHg 54%
    14:00 +11°C° 0 mm 6 mps 748 mmHg 52%
    15:00 +11°C° 0 mm 6 mps 748 mmHg 58%
    16:00 +10°C° 0 mm 5 mps 748 mmHg 64%
    17:00 +9°C° 0 mm 5 mps 747 mmHg 70%
    18:00 +9°C° 0 mm 6 mps 747 mmHg 73%
    19:00 +10°C° 0 mm 6 mps 747 mmHg 75%
    20:00 +10°C° 0 mm 6 mps 746 mmHg 78%
    21:00 +11°C° 0 mm 7 mps 746 mmHg 78%
    22:00 +11°C° 0 mm 7 mps 746 mmHg 79%
    23:00 +11°C° 0 mm 7 mps 746 mmHg 79%

    28 October, Sunday

    Time Temperature Precipitation Wind Pressure Humidity
    00:00 +11°C° 0 mm 7 mps 746 mmHg 81%
    01:00 +11°C° 0 mm 7 mps 746 mmHg 84%
    02:00 +11°C° 0 mm 7 mps 746 mmHg 86%
    03:00 +11°C° 0 mm 7 mps 746 mmHg 86%
    04:00 +11°C° 0 mm 7 mps 746 mmHg 85%
    05:00 +11°C° 0 mm 7 mps 747 mmHg 85%
    06:00 +11°C° 0 mm 7 mps 747 mmHg 82%
    07:00 +11°C° 0 mm 7 mps 747 mmHg 80%
    08:00 +12°C° 0 mm 7 mps 748 mmHg 78%
    09:00 +14°C° 0 mm 7 mps 748 mmHg 72%
    10:00 +16°C° 0 mm 7 mps 748 mmHg 67%
    11:00 +17°C° 0 mm 6 mps 748 mmHg 62%
    12:00 +19°C° 0 mm 6 mps 748 mmHg 59%
    13:00 +20°C° 0 mm 6 mps 748 mmHg 56%
    14:00 +20°C° 0 mm 6 mps 748 mmHg 53%
    15:00 +19°C° 0 mm 5 mps 748 mmHg 58%
    16:00 +17°C° 0 mm 5 mps 748 mmHg 63%
    17:00 +17°C° 0 mm 4 mps 748 mmHg 68%
    18:00 +17°C° 0 mm 4 mps 748 mmHg 70%
    19:00 +15°C° 0 mm 5 mps 749 mmHg 72%
    20:00 +15°C° 0 mm 5 mps 749 mmHg 74%
    21:00 +15°C° 0 mm 5 mps 749 mmHg 75%
    22:00 +14°C° 0 mm 5 mps 749 mmHg 77%
    23:00 +14°C° 0 mm 4 mps 750 mmHg 78%

    29 October, Monday

    Time Temperature Precipitation Wind Pressure Humidity
    00:00 +13°C° 0 mm 4 mps 750 mmHg 80%
    01:00 +13°C° 0 mm 4 mps 750 mmHg 82%
    02:00 +12°C° 0 mm 3 mps 750 mmHg 84%
    03:00 +12°C° 0 mm 4 mps 750 mmHg 83%
    04:00 +12°C° 0 mm 4 mps 750 mmHg 83%
    05:00 +11°C° 0 mm 4 mps 750 mmHg 82%
    06:00 +12°C° 0 mm 4 mps 750 mmHg 77%
    07:00 +13°C° 0 mm 5 mps 750 mmHg 71%
    08:00 +13°C° 0 mm 5 mps 750 mmHg 66%
    09:00 +15°C° 0 mm 5 mps 750 mmHg 59%
    10:00 +17°C° 0 mm 5 mps 750 mmHg 52%
    11:00 +20°C° 0 mm 6 mps 751 mmHg 45%
    12:00 +21°C° 0 mm 6 mps 750 mmHg 42%
    13:00 +21°C° 0 mm 6 mps 750 mmHg 40%
    14:00 +22°C° 0 mm 6 mps 750 mmHg 38%
    15:00 +20°C° 0 mm 5 mps 750 mmHg 41%
    16:00 +19°C° 0 mm 4 mps 750 mmHg 43%
    17:00 +17°C° 0 mm 4 mps 749 mmHg 46%
    18:00 +15°C° 0 mm 4 mps 750 mmHg 45%
    19:00 +15°C° 0 mm 4 mps 750 mmHg 44%
    20:00 +14°C° 0 mm 4 mps 750 mmHg 43%
    21:00 +13°C° 0 mm 4 mps 750 mmHg 45%
    22:00 +13°C° 0 mm 4 mps 750 mmHg 47%
    23:00 +12°C° 0 mm 4 mps 750 mmHg 48%
    Show more